Woodinville, Washington, United States (98072)
Lat: 47.75N, Lon: 122.16W
Wx Zone: WAZ505
Local Info
Past Weather Observations for Thursday, May 26, 2016

NOTE: This archive is for the closest National Weather Service station to Woodinville. Information may differ from the station used for current weather conditions.

Click here for Long-term Archive

Time Weather Temperature Dewpoint Humidity Pressure Winds Precip Visibility
23:53
Overcast
Light Rain
50°F / 10°C 43°F / 6°C 76% 30.15 in
(1021 mb)
Calm 0.00 in
(0.00 mm)
9SM
22:53
Overcast
50°F / 10°C 43°F / 6°C 76% 30.15 in
(1021 mb)
NE 4.6 mph
(NE 7 kph)
0.02 in
(0.51 mm)
10SM
22:21
Overcast
Light Rain
50°F / 10°C 43°F / 6°C 76% 30.15 in
(1021 mb)
N 4.6 mph
(N 7 kph)
0.02 in
(0.51 mm)
8SM
21:53
Overcast
52°F / 11°C 41°F / 5°C 67% 30.15 in
(1021 mb)
N 9.2 mph
(N 15 kph)
- 10SM
20:53
Overcast
52°F / 11°C 43°F / 6°C 72% 30.15 in
(1021 mb)
N 6.9 mph
(N 11 kph)
- 10SM
19:53
Overcast
48°F / 9°C 45°F / 7°C 87% 30.12 in
(1020 mb)
NNE 6.9 mph
(NNE 11 kph)
0.00 in
(0.00 mm)
8SM
19:30
Overcast
Fog And Mist
48°F / 9°C 45°F / 7°C 87% 30.15 in
(1021 mb)
Variable 4.6 mph
(Variable 7 kph)
0.00 in
(0.00 mm)
5SM
19:00
Overcast
Light Rain
52°F / 11°C 45°F / 7°C 77% 30.12 in
(1020 mb)
N 6.9 mph
(N 11 kph)
0.00 in
(0.00 mm)
10SM
18:53
Mostly Cloudy
Light Rain
52°F / 11°C 45°F / 7°C 77% 30.15 in
(1021 mb)
N 6.9 mph
(N 11 kph)
0.00 in
(0.00 mm)
9SM
18:28
Mostly Cloudy
52°F / 11°C 45°F / 7°C 77% 30.12 in
(1020 mb)
NNE 6.9 mph
(NNE 11 kph)
- 10SM
17:53
Overcast
Fog And Mist
50°F / 10°C 48°F / 9°C 94% 30.12 in
(1020 mb)
N 6.9 mph
(N 11 kph)
0.00 in
(0.00 mm)
5SM
17:29
Overcast
Fog And Mist
52°F / 11°C 46°F / 8°C 82% 30.15 in
(1021 mb)
N 5.8 mph
(N 9 kph)
- 4SM
17:17
Overcast
Fog And Mist
52°F / 11°C 46°F / 8°C 82% 30.15 in
(1021 mb)
N 4.6 mph
(N 7 kph)
- 4SM
16:53
Overcast
54°F / 12°C 46°F / 8°C 77% 30.15 in
(1021 mb)
NNW 6.9 mph
(NNW 11 kph)
- 7SM
15:53
Overcast
55°F / 13°C 46°F / 8°C 72% 30.15 in
(1021 mb)
N 6.9 mph
(N 11 kph)
- 10SM
14:53
Mostly Cloudy
57°F / 14°C 45°F / 7°C 63% 30.15 in
(1021 mb)
SSW 6.9 mph
(SSW 11 kph)
- 10SM
13:53
Overcast
57°F / 14°C 46°F / 8°C 67% 30.18 in
(1022 mb)
W 8.1 mph
(W 13 kph)
- 10SM
13:45
Overcast
59°F / 15°C 46°F / 8°C 63% 30.18 in
(1022 mb)
W 9.2 mph
(W 15 kph)
- 10SM
13:08
Overcast
57°F / 14°C 46°F / 8°C 67% 30.18 in
(1022 mb)
SSE 6.9 mph
(SSE 11 kph)
- 10SM
12:53
Mostly Cloudy
57°F / 14°C 46°F / 8°C 67% 30.18 in
(1022 mb)
S 8.1 mph
(S 13 kph)
- 10SM
12:43
Overcast
55°F / 13°C 45°F / 7°C 67% 30.18 in
(1022 mb)
SSE 6.9 mph
(SSE 11 kph)
- 10SM
12:41
Overcast
55°F / 13°C 45°F / 7°C 67% 30.18 in
(1022 mb)
SSE 9.2 mph
(SSE 15 kph)
- 10SM
11:53
Overcast
55°F / 13°C 45°F / 7°C 67% 30.18 in
(1022 mb)
S 10.4 mph
(S 17 kph)
- 10SM
10:53
Overcast
54°F / 12°C 46°F / 8°C 77% 30.18 in
(1022 mb)
SSW 8.1 mph
(SSW 13 kph)
- 10SM
09:53
Overcast
52°F / 11°C 46°F / 8°C 82% 30.18 in
(1022 mb)
SSW 5.8 mph
(SSW 9 kph)
- 10SM
08:53
Overcast
52°F / 11°C 45°F / 7°C 77% 30.18 in
(1022 mb)
SSW 3.5 mph
(SSW 6 kph)
- 10SM
07:53
Overcast
52°F / 11°C 43°F / 6°C 72% 30.18 in
(1022 mb)
SSE 9.2 mph
(SSE 15 kph)
- 10SM
06:53
Overcast
50°F / 10°C 45°F / 7°C 82% 30.21 in
(1023 mb)
W 3.5 mph
(W 6 kph)
- 10SM
05:53
Overcast
52°F / 11°C 41°F / 5°C 67% 30.18 in
(1022 mb)
SSE 3.5 mph
(SSE 6 kph)
- 10SM
04:53
Overcast
50°F / 10°C 43°F / 6°C 76% 30.18 in
(1022 mb)
S 9.2 mph
(S 15 kph)
- 10SM
03:53
Overcast
50°F / 10°C 43°F / 6°C 76% 30.18 in
(1022 mb)
SW 3.5 mph
(SW 6 kph)
- 10SM
02:53
Overcast
52°F / 11°C 43°F / 6°C 72% 30.18 in
(1022 mb)
SSE 4.6 mph
(SSE 7 kph)
- 10SM
01:53
Overcast
52°F / 11°C 43°F / 6°C 72% 30.18 in
(1022 mb)
SSE 4.6 mph
(SSE 7 kph)
- 10SM
01:04
Mostly Cloudy
52°F / 11°C 43°F / 6°C 72% 30.18 in
(1022 mb)
SSE 4.6 mph
(SSE 7 kph)
- 10SM
00:53
Mostly Cloudy
52°F / 11°C 43°F / 6°C 72% 30.18 in
(1022 mb)
S 5.8 mph
(S 9 kph)
- 10SM
Time Weather Temperature Dewpoint Humidity Pressure Winds Precip Visibility


Weather for websites

WeatherForYou.com, LLC is not responsible for any damages or problems caused by this service. Current weather conditions are obtained from the closest station including government and personal stations which may have varying degrees of accuracy. Weather forecasts are derived from the NOAA NDFD. Like all things, this site belongs to Jesus Christ... He just trusts us to maintain it. If you have any questions or comments email webmaster@weatherforyou.com

Copyright © 2016, WeatherForYou.com LLC. All rights reserved.